Regional Weather Roundup
Issued by NWS

Home | Current Version | Previous Version | Text Only | Print | Product List | Glossary On
Versions: 1 2 3 4 5 6 7 8 9 10 11 12 13 14 15 16 17 18 19 20 21 22 23 24 25 26 27 28 29 30 31 32 33 34 35 36 37 38 39 40 41 42 43 44 45 46 47 48 49 50
000
ASUS44 KMEG 201010
RWRTN
TENNESSEE HOURLY STATE WEATHER ROUNDUP
NATIONAL WEATHER SERVICE MEMPHIS TN
400 AM CST FRI JAN 20 2017

TNZ002-004-019-021-049-052-054-088>092-201100-
WEST TENNESSEE

CITY           SKY/WX    TMP DP  RH WIND       PRES   REMARKS
MEMPHIS INTL   CLOUDY    57  56  96 S3        29.72R
NWS MEMPHIS      N/A     56 N/A N/A MISG        N/A
JACKSON        CLOUDY    56  55  97 S5        29.71F
DYERSBURG      CLOUDY    55  52  88 SW6       29.70S
UNION CITY     CLOUDY   N/A N/A N/A SW8       29.68S
PARIS          CLOUDY    54  52  94 SW9       29.70S
HUNTINGDON     CLOUDY    57  55  94 SW7       29.70R
$$

TNZ008-025-027-028-033-062-065-066-201100-
NORTH MIDDLE TENNESSEE

CITY           SKY/WX    TMP DP  RH WIND       PRES   REMARKS
NASHVILLE      CLOUDY    57  54  89 SW7       29.74R
PORTLAND       CLOUDY    57  55  94 VRB7      29.71R
CLARKSVILLE    CLOUDY    57  53  86 SW9       29.71R
GALLATIN       MOCLDY    55  55 100 CALM      29.74S
CROSSVILLE     CLOUDY    53  52  96 VRB3      29.75F
$$

TNZ061-075-076-078-094-096-097-201100-
SOUTH MIDDLE TENNESSEE

CITY           SKY/WX    TMP DP  RH WIND       PRES   REMARKS
TULLAHOMA      CLOUDY    55  55 100 SW7       29.75S
WINCHESTER     CLOUDY    59  55  88 SW7       29.76R
MCMINNVILLE    MOCLDY    57  57 100 SW5       29.74R
COLUMBIA       CLOUDY   N/A N/A N/A SW5       29.73R
SHELBYVILLE    PTCLDY    55  55 100 SW3       29.75R
$$

TNZ017-018-042-046-047-201100-
NORTHEAST TENNESSEE

CITY           SKY/WX    TMP DP  RH WIND       PRES   REMARKS
TRI CITIES     LGT RAIN  55  49  80 S7        29.78R
ELIZABETHTON   LGT RAIN  54  50  87 NE8       29.78S
$$

TNZ012-013-036-069-073-074-201100-
CENTRAL EAST TENNESSEE

CITY           SKY/WX    TMP DP  RH WIND       PRES   REMARKS
KNOXVILLE      LGT RAIN  54  52  93 SW6       29.74R
OAK RIDGE      CLOUDY    53  50  89 CALM      29.77S
GATLINBURG     CLOUDY    52  50  93 NE6       29.76F
MORRISTOWN     MOCLDY    52  52 100 CALM      29.76F
JACKSBORO      CLOUDY    50  50 100 NE8       29.78R
$$

TNZ083-085-099-201100-
SOUTHEAST TENNESSEE

CITY           SKY/WX    TMP DP  RH WIND       PRES   REMARKS
CHATTANOOGA    CLOUDY    56  54  93 E3        29.76S
$$

SKY/WX REPORTED AS FAIR MEANS FEW OR NO CLOUDS BELOW
12 THOUSAND FEET.





USA.gov is the U.S. government's official web portal to all federal, state and local government web resources and services.